Weather History for Kalamazoo, MI

Change the Weather History Date:

Tuesday, March 11, 2014

  Actual Average Record
Temperature  
Mean Temperature 43 °F 34 °F  
Max Temperature 52 °F 43 °F 72 °F (1990)
Min Temperature 33 °F 26 °F 7 °F (1960)
Degree Days  
Heating Degree Days 22 31  
Month to date heating degree days 462 358  
Since 1 July heating degree days 5630 5131  
Cooling Degree Days 0 0  
Month to date cooling degree days 0 0  
Year to date cooling degree days 0 0  
Moisture  
Dew Point 33 °F    
Average Humidity 70    
Maximum Humidity 92    
Minimum Humidity 48    
Precipitation  
Precipitation 0.07 in 0.07 in 0.62 in (1957)
Month to date precipitation 0.16 0.81  
Year to date precipitation 2.69 4.05  
Sea Level Pressure  
Sea Level Pressure 29.70 in    
Wind  
Wind Speed 5 mph (NNW)    
Max Wind Speed 16 mph    
Max Gust Speed 19 mph    
Visibility 8 miles    
Events Rain    
T = Trace of Precipitation, MM = Missing Value Source: NWS Daily Summary

Daily Weather History Graph

Daily Weather History Graph

Search for Another Location

Airport:

Trip Planner

Search our weather history database for the weather conditions in past years. The results will help you decide how hot, cold, wet, or windy it might be!

Date:

Astronomy

Mar. 11, 2014 Rise Set
Actual Time 8:00 AM EDT 7:44 PM EDT
Civil Twilight 7:33 AM EDT 8:12 PM EDT
Nautical Twilight 7:00 AM EDT 8:44 PM EDT
Astronomical Twilight 6:27 AM EDT 9:17 PM EDT
Moon 3:16 PM EDT (3/11) 4:58 AM EDT (3/11)
Length of Visible Light 12h 39m
Length of Day
11h 43m
Waxing Gibbous, 78% of the Moon is Illuminated
Mar 11
Waxing Gibbous
Mar 16
Full
Mar 23
Last Quarter
Mar 30
New
Apr 7
First Quarter

Hourly Weather History & Observations

Time (EDT) Temp. Windchill Dew Point Humidity Pressure Visibility Wind Dir Wind Speed Gust Speed Precip Events Conditions
12:53 AM 42.1 °F 38.4 °F 35.1 °F 76% 29.67 in 10.0 mi WSW 5.8 mph - N/A   Clear
1:53 AM 39.9 °F 37.8 °F 34.0 °F 79% 29.68 in 10.0 mi West 3.5 mph - N/A   Clear
2:53 AM 36.0 °F 31.1 °F 33.1 °F 89% 29.69 in 7.0 mi SW 5.8 mph - N/A   Clear
3:53 AM 33.1 °F 30.0 °F 30.9 °F 92% 29.68 in 4.0 mi SSW 3.5 mph - N/A   Clear
4:53 AM 35.1 °F - 32.0 °F 89% 29.67 in 6.0 mi Calm Calm - N/A   Clear
5:53 AM 36.0 °F - 33.1 °F 89% 29.67 in 5.0 mi Calm Calm - N/A   Clear
6:53 AM 34.0 °F 31.0 °F 30.9 °F 89% 29.67 in 4.0 mi South 3.5 mph - N/A   Clear
7:53 AM 35.1 °F - 32.0 °F 89% 29.69 in 4.0 mi Calm Calm - N/A   Clear
8:53 AM 36.0 °F - 34.0 °F 93% 29.69 in 7.0 mi Calm Calm - N/A   Clear
9:53 AM 39.0 °F 36.8 °F 34.0 °F 82% 29.70 in 7.0 mi South 3.5 mph - N/A   Overcast
10:53 AM 39.0 °F 34.8 °F 35.1 °F 86% 29.71 in 6.0 mi SW 5.8 mph - N/A   Overcast
11:53 AM 45.0 °F - 34.0 °F 65% 29.70 in 10.0 mi Calm Calm - N/A   Mostly Cloudy
12:53 PM 48.0 °F - 33.1 °F 56% 29.71 in 10.0 mi Calm Calm - N/A   Mostly Cloudy
1:53 PM 45.0 °F - 32.0 °F 60% 29.70 in 10.0 mi Calm Calm - N/A   Mostly Cloudy
2:53 PM 51.1 °F - 32.0 °F 48% 29.68 in 10.0 mi NNE 5.8 mph - N/A   Clear
3:53 PM 46.0 °F 40.2 °F 30.9 °F 56% 29.69 in 10.0 mi NNW 12.7 mph - N/A   Partly Cloudy
4:53 PM 44.1 °F 38.6 °F 30.9 °F 60% 29.70 in 10.0 mi North 10.4 mph - N/A   Mostly Cloudy
5:53 PM 44.1 °F 40.8 °F 30.9 °F 60% 29.72 in 10.0 mi North 5.8 mph - N/A   Overcast
6:53 PM 43.0 °F 37.2 °F 33.1 °F 68% 29.73 in 10.0 mi North 10.4 mph - 0.00 in   Overcast
7:53 PM 41.0 °F 34.3 °F 35.1 °F 79% 29.75 in 10.0 mi North 11.5 mph - 0.00 in Rain Light Rain
8:53 PM 39.9 °F 33.4 °F 35.1 °F 83% 29.75 in 10.0 mi NNE 10.4 mph - 0.02 in Rain Light Rain
9:53 PM 37.0 °F 31.6 °F 34.0 °F 89% 29.76 in 10.0 mi North 6.9 mph - 0.00 in   Partly Cloudy
10:53 PM 37.9 °F 33.5 °F 35.1 °F 89% 29.74 in 10.0 mi NNE 5.8 mph - N/A   Clear
11:53 PM 37.9 °F 33.5 °F 34.0 °F 86% 29.71 in 10.0 mi NNE 5.8 mph - 0.00 in   Overcast